SCP
0 0 0 0 0 0 0 0 0 0 0 0 0 0 0 0 0 0 0 0 0 0 0 0 0 0 0 0 0 0 0 0 0 0 0 0 0 0 0 0 0 0 0
0 0 0 0 0 0 0 0 0 0 0 0 0 0 0 0 0 0 0 0 0 0 0 0 0 0 0 0 0 0 0 0 0 0 0 0 0 0 0 0 0 0 0
0 0 0 0 0 0 0 0 0 0 0 0 0 0 0 0 0 0 0 0 0 0 0 0 0 0 0 0 0 0 0 0 0 0 0 0 0 0 0 0 0 0 0
0 0 0 0 0 0 0 0 0 0 0 0 0 0 0 0 0 0 0 0 0 0 0 0 0 0 0 0 0 0 0 0 0 0 0 0 0 0 0 0 0 0 0
0 0 0 0 0 0 0 0 0 0 0 0 0 0 0 0 0 0 0 0 0 0 0 0 0 0 0 0 0 0 0 0 0 0 0 0 0 0 0 0 0 0 0
0 0 0 0 0 0 0 0 0 0 0 0 0 0 0 0 0 0 0 0 0 0 0 0 0 0 0 0 0 0 0 0 0 0 0 0 0 0 0 0 0 0 0
0 0 0 0 0 0 0 0 0 0 0 0 0 0 0 0 0 0 0 0 0 0 0 0 0 0 0 0 0 0 0 0 0 0 0 0 0 0 0 0 0 0 0
0 0 0 0 0 0 0 0 0 0 0 0 0 0 0 0 0 0 0 0 0 0 0 0 0 0 0 0 0 0 0 0 0 0 0 0 0 0 0 0 0 0 0
0 0 0 0 0 0 0 0 0 0 0 0 0 0 0 0 0 0 0 0 0 0 0 0 0 0 0 0 0 0 0 0 0 0 0 0 0 0 0 0 0 0 0
1 0 0 0 0 0 0 0 0 0 0 0 0 0 0 0 -0 -0 -0 -0 0 0 0 0 0 0 0 0 0 0 0 0 0 0 0 0 0 0 0 0 0 0 0
1 1 0 0 0 0 0 0 0 0 0 0 0 0 0 -0 -0 -0 -0 -0 0 0 0 0 0 0 0 0 0 0 0 0 0 0 0 0 0 0 0 0 0 0 0
1 1 0 0 0 0 0 0 0 0 0 0 0 0 0 0 -0 -0 -0 -0 0 0 0 0 0 0 0 0 0 0 0 0 0 0 0 0 0 0 0 0 0 0 0
1 1 0 0 0 0 0 0 0 0 0 0 0 0 0 0 0 -0 -0 -0 0 0 0 0 0 0 0 0 0 0 0 0 0 0 0 0 0 0 0 0 0 0 0
1 1 1 0 0 0 0 0 0 0 0 0 0 0 0 0 0 0 0 0 0 0 0 0 0 0 0 0 0 0 0 0 0 0 0 0 0 0 0 0 0 0 0
1 1 1 1 0 0 0 0 0 0 0 0 0 0 0 0 0 0 0 0 0 0 0 0 0 0 0 0 0 0 0 0 0 0 0 0 0 0 0 0 0 0 0
1 1 1 1 0 0 0 0 0 0 0 0 0 0 0 0 0 0 0 0 0 0 0 0 0 0 0 0 0 0 0 0 0 0 0 0 0 0 0 0 0 0 0
1 1 1 1 0 0 0 0 0 0 0 0 0 0 0 0 0 0 0 0 0 0 0 0 0 0 0 0 0 0 0 0 0 0 -0 0 0 0 0 0 0 0 0
1 1 1 1 0 0 0 0 0 0 0 0 0 0 0 0 0 0 0 0 0 0 0 0 0 0 0 0 0 0 0 -0 -0 -0 -0 -0 0 0 0 0 0 0 0
1 1 1 1 0 0 0 0 0 0 0 0 0 0 0 0 0 0 0 0 0 0 0 0 0 0 0 0 0 0 0 0 -0 0 0 0 0 0 0 0 0 0 0
1 1 1 1 1 1 0 0 0 0 0 0 0 0 0 0 0 0 0 0 0 0 0 0 0 0 0 0 0 0 0 0 0 0 0 0 0 0 0 0 0 0 0
1 1 1 1 1 1 0 0 0 0 0 0 0 0 0 0 0 0 0 0 0 0 0 0 0 0 0 0 0 0 0 0 0 0 0 0 0 0 0 0 0 0 0
1 1 1 1 1 1 1 0 0 0 0 0 0 0 0 0 0 0 0 0 0 0 0 0 0 0 0 0 0 0 0 0 0 0 0 0 0 0 0 0 0 0 0
1 1 1 1 1 1 1 1 0 0 0 0 0 0 0 0 0 0 0 0 0 0 0 0 0 0 0 0 0 0 0 0 0 0 0 0 0 0 0 0 0 0 0
1 1 1 1 1 1 1 1 0 0 0 0 0 0 0 0 0 0 0 0 0 0 0 0 0 0 0 0 0 0 0 0 0 0 0 0 0 0 0 0 0 0 0
1 1 1 1 1 1 1 1 0 0 0 0 0 0 0 0 0 0 0 0 0 0 0 0 0 0 0 0 0 0 0 0 0 0 0 0 0 0 0 0 0 0 0
1 1 1 1 1 1 1 0 0 0 0 0 0 0 0 0 0 0 0 0 0 0 0 0 0 0 0 0 0 0 0 0 0 0 0 0 0 0 0 0 0 0 0
Wind_Speed
7 8 16 16 16 17 17 17 17 17 17 17 17 17 16 16 15 14 13 12 12 12 12 12 12 12 13 13 14 14 14 15 14 15 15 15 15 15 15 16 15 12 16
12 11 17 17 17 17 17 17 17 17 17 17 16 16 15 15 14 14 13 12 12 12 13 13 13 13 14 14 14 14 14 14 14 14 15 14 15 15 15 15 14 10 15
15 12 15 17 17 17 17 17 17 17 17 16 16 15 15 14 14 13 13 12 12 13 13 13 13 13 14 14 14 14 14 13 13 14 13 9 11 14 14 14 14 14 14
15 11 13 18 18 17 17 16 16 16 16 16 15 15 14 14 13 13 13 12 12 13 13 13 13 13 13 13 13 13 13 13 14 13 7 7 8 13 13 14 14 14 14
13 10 13 20 18 17 17 16 16 16 15 15 14 14 14 13 13 12 12 12 12 12 13 13 13 13 13 13 13 13 13 13 14 11 7 7 6 11 13 13 13 13 13
12 10 13 19 18 17 17 16 15 15 15 14 14 13 13 13 12 12 12 12 12 12 12 12 12 12 12 12 12 12 13 13 11 8 7 7 6 10 12 13 13 13 13
11 9 12 19 18 18 17 16 15 15 14 14 13 13 12 12 12 11 11 11 11 12 12 12 12 12 11 10 11 12 12 12 8 7 6 6 6 10 12 12 12 12 12
13 10 11 18 18 17 17 16 15 14 14 13 13 12 12 12 11 11 11 11 11 11 11 11 11 10 10 9 10 11 12 11 9 7 6 5 8 10 11 12 11 11 11
10 9 8 10 13 16 16 15 15 14 14 13 13 12 12 11 11 10 10 10 10 10 10 10 10 9 8 8 9 11 11 11 7 5 6 4 8 10 11 11 11 11 11
8 8 8 8 7 8 9 15 15 14 14 13 12 12 11 11 11 10 9 9 10 10 9 9 9 8 8 8 8 10 12 10 6 5 4 5 8 10 10 10 10 10 10
10 7 7 8 7 7 6 11 12 13 13 12 10 12 9 4 5 5 7 9 9 9 8 8 8 7 7 6 8 10 9 4 6 4 3 6 9 9 10 9 9 9 9
13 10 7 8 8 7 7 6 4 4 5 5 4 5 4 4 3 5 5 8 8 8 8 7 7 7 5 3 5 7 3 5 4 4 3 8 8 9 9 9 9 9 9
13 12 9 8 8 7 5 5 3 2 3 4 5 5 4 3 3 3 2 2 3 4 3 4 4 3 3 3 3 3 4 4 3 3 4 8 8 8 9 8 8 8 8
13 12 10 9 8 7 5 5 4 3 3 3 4 5 4 3 2 2 2 2 2 2 2 2 2 2 3 3 3 3 4 3 3 2 3 8 7 8 8 8 8 8 8
13 12 11 10 9 7 6 5 5 4 4 4 4 4 4 3 3 2 2 2 2 2 2 2 2 2 2 3 3 3 4 4 4 3 2 7 8 7 8 8 8 8 8
13 12 11 11 10 8 6 5 5 4 4 4 4 4 5 4 3 3 2 2 2 2 2 2 2 2 1 2 2 3 3 3 4 4 3 4 7 7 7 8 8 8 8
13 12 12 11 9 9 8 7 5 5 5 4 4 5 5 4 4 4 3 2 2 2 2 2 2 2 2 2 2 3 3 3 3 3 3 2 3 6 7 7 8 8 8
12 12 12 12 11 10 8 6 5 5 5 4 4 4 6 5 5 4 3 3 3 2 2 2 2 2 1 2 2 1 2 2 3 3 3 3 2 3 5 7 8 8 8
12 13 12 10 11 10 8 6 5 5 5 4 4 4 5 6 6 4 4 3 3 3 3 3 2 2 2 2 2 1 1 1 2 3 4 4 4 3 3 4 7 7 9
11 11 11 10 9 8 6 5 4 4 4 4 4 5 6 5 6 5 4 4 4 3 3 2 3 2 2 2 2 1 1 1 1 2 4 3 4 5 4 4 3 4 7
10 11 12 10 10 8 6 7 6 6 5 5 5 6 7 6 6 5 4 4 5 4 4 4 3 3 2 2 2 1 1 0 1 2 3 3 4 5 5 5 4 3 3
12 12 12 12 11 10 8 6 4 4 3 4 4 5 6 7 7 6 5 5 5 4 4 4 4 3 2 2 3 2 1 2 1 2 2 4 4 4 5 6 5 5 4
12 13 13 12 11 10 8 5 4 3 3 3 4 4 6 7 7 6 6 5 5 5 5 5 5 5 3 2 2 3 3 3 2 1 2 3 3 4 4 4 6 6 6
11 10 10 10 10 10 10 9 9 7 6 6 5 5 5 7 8 7 7 6 6 5 5 6 5 4 5 3 2 1 2 3 2 1 2 1 3 4 5 5 5 6 7
8 8 8 9 9 10 11 11 10 8 5 4 4 6 5 5 7 7 7 7 6 5 6 6 5 5 4 4 4 3 2 1 2 2 2 2 2 3 4 5 5 5 6
7 7 8 9 9 10 10 10 10 10 9 7 7 7 6 4 5 7 7 7 7 6 6 6 6 6 5 4 3 3 3 3 3 3 3 3 2 2 2 3 4 5 5
Wind_Direction
153 156 148 141 133 127 123 120 118 118 119 120 122 123 123 124 123 122 121 120 118 116 113 112 111 111 111 112 113 114 115 114 115 115 114 113 111 110 108 107 105 105 107
145 152 148 143 136 131 127 124 123 123 122 123 123 124 124 124 124 123 123 121 118 116 114 113 113 112 112 113 113 115 115 114 115 115 114 112 111 110 108 109 109 110 109
142 148 147 144 139 135 131 128 126 126 126 126 126 126 126 126 125 124 124 121 119 117 115 113 113 114 115 116 117 117 116 115 112 109 105 102 110 112 113 113 112 111 109
143 145 147 146 143 139 135 133 131 130 129 129 129 128 128 128 127 126 124 122 120 118 117 116 115 116 117 118 118 117 116 113 110 106 95 102 109 114 115 114 113 111 111
141 143 153 149 146 143 140 137 136 134 132 132 132 131 131 130 128 126 125 124 122 121 120 119 117 118 119 119 119 118 117 114 109 101 94 94 101 117 115 115 114 113 111
141 144 155 151 149 147 145 143 140 138 136 135 135 134 133 132 130 129 127 125 124 123 121 120 119 119 121 122 122 122 119 115 105 99 98 103 110 121 119 117 115 115 115
141 146 155 153 152 151 150 148 145 143 141 140 138 137 136 133 132 131 129 128 126 123 122 120 120 121 122 123 125 125 122 120 109 105 104 107 114 119 120 118 115 114 114
145 147 153 157 156 155 155 153 151 149 147 146 144 141 140 137 135 134 131 129 127 125 123 120 120 121 120 124 128 128 127 128 121 117 112 113 122 121 122 121 119 118 117
145 146 151 156 158 160 159 158 156 155 153 151 149 146 144 142 140 137 134 132 131 129 126 126 126 125 123 125 130 134 132 129 120 124 125 121 128 127 125 124 122 122 122
145 149 149 148 149 153 160 162 161 160 159 156 152 150 150 147 144 142 136 137 136 134 132 132 131 128 124 126 135 140 136 125 125 123 122 136 136 135 132 131 129 127 126
157 156 152 149 145 144 153 168 164 164 163 160 157 156 148 124 125 133 142 144 141 140 138 136 134 129 119 117 133 136 130 127 131 128 133 148 148 143 139 137 136 134 131
170 168 160 153 149 149 163 156 150 153 151 141 133 131 116 113 126 135 156 151 147 145 141 138 132 119 101 89 109 118 122 135 135 139 155 161 157 152 147 145 144 142 139
172 172 167 161 156 156 152 144 138 128 129 129 130 126 122 115 116 113 114 130 124 125 104 109 101 96 104 106 103 115 131 136 142 152 168 171 165 161 157 155 154 152 149
172 177 170 166 162 160 151 149 143 140 140 139 140 137 132 128 127 128 121 106 90 89 100 94 98 107 114 122 131 135 140 141 149 152 176 179 175 171 167 165 165 164 161
175 176 174 172 170 162 153 158 157 154 154 150 145 148 147 148 153 150 142 123 120 109 114 110 109 117 120 129 144 152 158 158 160 164 180 189 184 182 180 177 177 176 173
178 177 175 178 175 166 165 164 160 159 155 153 159 165 161 159 161 162 164 153 148 141 136 133 134 133 129 133 146 156 167 166 167 171 181 198 196 189 191 191 189 186 184
178 175 177 180 175 174 171 171 166 165 161 167 172 172 172 172 171 168 171 174 174 154 139 125 116 111 129 134 147 153 158 168 172 181 185 193 204 203 202 201 201 198 195
173 176 180 184 179 181 175 171 167 169 168 174 174 175 180 180 175 169 175 187 173 151 146 142 132 124 127 135 140 151 155 170 183 190 195 200 205 216 218 215 209 207 208
178 178 179 182 180 182 177 172 170 168 173 175 175 176 181 182 179 175 180 182 164 154 159 167 140 140 151 151 146 138 147 181 198 204 208 211 210 213 217 227 221 216 219
179 178 179 180 177 174 169 162 159 165 175 174 179 182 179 184 183 177 177 174 161 155 161 159 135 118 127 145 143 106 78 189 202 217 222 219 217 218 218 221 224 227 229
177 178 181 181 178 173 174 176 178 185 185 184 187 187 185 184 179 177 181 173 169 172 174 162 138 132 121 120 100 55 11 355 221 227 225 224 225 223 216 218 220 222 231
184 183 182 185 180 180 184 180 174 167 177 184 184 187 186 183 180 185 177 178 177 169 166 167 149 138 138 147 134 115 32 333 292 229 218 222 227 221 223 222 219 220 224
187 188 187 186 181 180 175 163 152 138 130 166 183 191 192 187 186 183 179 177 180 177 179 180 168 156 157 160 154 149 156 216 277 295 244 229 221 218 226 224 223 223 223
192 188 183 182 180 179 176 177 179 180 188 191 183 187 189 186 186 184 179 183 182 181 183 185 177 166 153 162 167 174 158 155 165 273 305 270 239 229 228 229 228 225 222
179 179 180 180 184 183 182 185 188 191 193 173 168 177 186 188 191 186 182 185 185 188 188 182 171 173 169 168 170 161 144 122 146 166 245 284 277 245 231 230 232 231 225
168 171 177 183 188 183 183 188 190 190 185 175 181 185 190 190 191 192 188 188 188 186 185 184 180 180 181 175 174 170 166 168 181 178 203 236 254 267 248 233 231 231 226